Time,TemperatureF,DewpointF,PressureIn,WindDirection,WindDirectionDegrees,WindSpeedMPH,WindSpeedGustMPH,Humidity,HourlyPrecipIn,Conditions,Clouds,dailyrainin,SolarRadiationWatts/m^2,SoftwareType,DateUTC
2013-01-03 00:00:00,3.0,-99.9,44.89,South,183,0.0,3.0,-999,-99.99,,,0.00,0.000000,,2013-01-03 07:00:00,
2013-01-03 00:53:00,3.0,-99.9,44.89,South,183,0.0,3.0,-999,-99.99,,,0.00,0.000000,,2013-01-03 07:53:00,
2013-01-03 02:00:00,6.0,-99.9,-100.00,SSW,198,2.0,9.0,-999,-99.99,,,0.00,23.799999,,2013-01-03 09:00:00,
2013-01-03 02:53:00,6.0,-99.9,-100.00,SSW,198,2.0,9.0,-999,-99.99,,,0.00,23.799999,,2013-01-03 09:53:00,
2013-01-03 04:00:00,-3.0,-99.9,-100.00,SSW,207,0.0,2.0,-999,-99.99,,,0.00,0.000000,,2013-01-03 11:00:00,
2013-01-03 04:53:00,-3.0,-99.9,-100.00,SSW,207,0.0,2.0,-999,-99.99,,,0.00,0.000000,,2013-01-03 11:53:00,
2013-01-03 05:00:00,-3.0,-99.9,-100.00,SSW,207,1.0,2.0,-999,-99.99,,,0.00,0.000000,,2013-01-03 12:00:00,
2013-01-03 05:53:00,-3.0,-99.9,-100.00,SSW,207,1.0,2.0,-999,-99.99,,,0.00,0.000000,,2013-01-03 12:53:00,
2013-01-03 06:00:00,-5.0,-99.9,44.89,SSW,207,0.0,2.0,-999,-99.99,,,-99.99,8.600000,,2013-01-03 13:00:00,
2013-01-03 06:53:00,-5.0,-99.9,44.89,SSW,207,0.0,2.0,-999,-99.99,,,-99.99,8.600000,,2013-01-03 13:53:00,
2013-01-03 07:00:00,-5.0,-99.9,44.89,SSW,206,0.0,2.0,-999,-99.99,,,-99.99,0.000000,,2013-01-03 14:00:00,
2013-01-03 07:53:00,-5.0,-99.9,44.89,SSW,206,0.0,2.0,-999,-99.99,,,-99.99,0.000000,,2013-01-03 14:53:00,
2013-01-03 08:00:00,-3.0,-99.9,44.89,SSW,213,1.0,4.0,-999,-99.99,,,-99.99,0.000000,,2013-01-03 15:00:00,
2013-01-03 08:53:00,-3.0,-99.9,44.89,SSW,213,1.0,4.0,-999,-99.99,,,-99.99,0.000000,,2013-01-03 15:53:00,
2013-01-03 09:00:00,5.0,-99.9,-100.00,WSW,257,1.0,5.0,-999,-99.99,,,0.00,8.600000,,2013-01-03 16:00:00,
2013-01-03 09:53:00,5.0,-99.9,-100.00,WSW,257,1.0,5.0,-999,-99.99,,,0.00,8.600000,,2013-01-03 16:53:00,
2013-01-03 10:00:00,11.0,-99.9,-100.00,South,170,2.0,6.0,-999,-99.99,,,-99.99,9.500000,,2013-01-03 17:00:00,
2013-01-03 10:53:00,11.0,-99.9,-100.00,South,170,2.0,6.0,-999,-99.99,,,-99.99,9.500000,,2013-01-03 17:53:00,
2013-01-03 11:00:00,18.0,-99.9,-100.00,West,263,1.0,6.0,-999,-99.99,,,0.00,9.200000,,2013-01-03 18:00:00,
2013-01-03 11:54:00,18.0,-99.9,-100.00,West,263,1.0,6.0,-999,-99.99,,,0.00,9.200000,,2013-01-03 18:54:00,
2013-01-03 12:00:00,20.0,-99.9,-100.00,SW,232,2.0,9.0,-999,-99.99,,,-99.99,11.000000,,2013-01-03 19:00:00,
2013-01-03 12:57:00,20.0,-99.9,-100.00,SW,232,2.0,9.0,-999,-99.99,,,-99.99,11.000000,,2013-01-03 19:57:00,
2013-01-03 13:00:00,22.0,-99.9,-100.00,SE,140,1.0,6.0,-999,-99.99,,,-99.99,3.400000,,2013-01-03 20:00:00,
2013-01-03 13:53:00,22.0,-99.9,-100.00,SE,140,1.0,6.0,-999,-99.99,,,-99.99,3.400000,,2013-01-03 20:53:00,
2013-01-03 14:00:00,22.0,-99.9,-100.00,South,177,1.0,6.0,-999,-99.99,,,0.00,2.800000,,2013-01-03 21:00:00,
2013-01-03 15:00:00,22.0,-99.9,44.89,SW,230,1.0,5.0,-999,-99.99,,,-99.99,1.500000,,2013-01-03 22:00:00,
2013-01-03 15:53:00,22.0,-99.9,44.89,SW,230,1.0,5.0,-999,-99.99,,,-99.99,1.500000,,2013-01-03 22:53:00,
2013-01-03 16:00:00,19.0,-99.9,44.89,WNW,284,1.0,7.0,-999,-99.99,,,-99.99,12.800000,,2013-01-03 23:00:00,
2013-01-03 16:53:00,19.0,-99.9,44.89,WNW,284,1.0,7.0,-999,-99.99,,,-99.99,12.800000,,2013-01-03 23:53:00,
2013-01-03 17:00:00,10.0,-99.9,-100.00,West,261,1.0,3.0,-999,-99.99,,,-99.99,0.600000,,2013-01-04 00:00:00,
2013-01-03 17:53:00,10.0,-99.9,-100.00,West,261,1.0,3.0,-999,-99.99,,,-99.99,0.600000,,2013-01-04 00:53:00,
2013-01-03 18:00:00,5.0,-99.9,44.89,WSW,239,1.0,3.0,-999,-99.99,,,-99.99,0.000000,,2013-01-04 01:00:00,
2013-01-03 18:53:00,5.0,-99.9,44.89,WSW,239,1.0,3.0,-999,-99.99,,,-99.99,0.000000,,2013-01-04 01:53:00,
2013-01-03 19:00:00,3.0,-99.9,44.89,SW,223,1.0,3.0,-999,-99.99,,,-99.99,0.000000,,2013-01-04 02:00:00,
2013-01-03 19:53:00,3.0,-99.9,44.89,SW,223,1.0,3.0,-999,-99.99,,,-99.99,0.000000,,2013-01-04 02:53:00,
2013-01-03 20:00:00,2.0,-99.9,-100.00,SW,235,1.0,2.0,-999,-99.99,,,-99.99,0.000000,,2013-01-04 03:00:00,
2013-01-03 20:53:00,2.0,-99.9,-100.00,SW,235,1.0,2.0,-999,-99.99,,,-99.99,0.000000,,2013-01-04 03:53:00,
2013-01-03 22:00:00,1.0,-99.9,-100.00,West,267,0.0,2.0,-999,-99.99,,,-99.99,0.000000,,2013-01-04 05:00:00,
2013-01-03 22:53:00,1.0,-99.9,-100.00,West,267,0.0,2.0,-999,-99.99,,,-99.99,0.000000,,2013-01-04 05:53:00,
2013-01-03 23:00:00,1.0,-99.9,44.89,West,267,1.0,2.0,-999,-99.99,,,-99.99,0.000000,,2013-01-04 06:00:00,
2013-01-03 23:53:00,1.0,-99.9,44.89,West,267,1.0,2.0,-999,-99.99,,,-99.99,0.000000,,2013-01-04 06:53:00,